Terminal Aerodrome Forecast
Issued by NWS

Home | Current Version | Previous Version | Graphics & Text | Print | Product List | Glossary On
Versions: 1 2 3 4 5 6 7 8 9 10 11 12 13 14 15 16 17 18 19 20 21 22 23 24 25 26 27 28
000
FTUS43 KBIS 261100 RRA
TAFDIK
TAF
KDIK 261143Z 2612/2712 VRB03KT P6SM BKN035 OVC050
      TEMPO 2615/2618 5SM -RA BR OVC035
     FM261800 10007KT 4SM -SHRA BKN025
     FM270000 08007KT 5SM BR VCSH BKN035 OVC060
     FM270300 35006KT 3SM BR VCSH BKN040 OVC050=

USA.gov is the U.S. government's official web portal to all federal, state and local government web resources and services.